星链-37170(STARLINK-37170)

导读

STARLINK-37170(NORAD编号68614)是SpaceX星链(Starlink)星座中的第二代低轨宽带通信卫星。星链星座由SpaceX主导部署,旨在为全球提供高速低延迟互联网接入服务,该卫星运行在近地轨道,属于星链大规模组网的组成部分,承担地面用户的宽带通信传输任务。 截至2026年4月,SpaceX正推进第三代星链卫星部署规划,第三代卫星容量相比第二代将实现数倍提升,STARLINK-37170作为第二代组网卫星,目前仍服务于星链现有全球网络覆盖,支撑星链面向个人、行业用户的宽带服务能力。

Basic Information
目录编号:
68614
目录名称:
STARLINK-37170
国际标识:
2026-073N
轨道中心:
EARTH
卫星名称:
星链-37170
卫星全名:
星链-37170(STARLINK-37170)
卫星状态:
在轨 (已飞行160 天)
发射日期:
2026-04-05 UTC
国别 :
美国 (US)
星等 :
--
This satellite is enrolled in the Space Conjunction Data Service (SCDS) and the current flight risk assessment level is: No High Risk
Orbit Information
数据来源 国际轨道数据 AOE轨道数据
星历时间 2026-09-12T15:04:00+0800
9小时前
查看轨道信息
2026-09-10T23:00:00+0800
2天前
查看轨道信息
半长轴 6843.679km 6843.663km
偏心率 0.0001694 0.0001613
轨道倾角 97.285° 97.284°
近地点辐角 89.661° 89.794°
升交点赤经 93.436° 91.789°
平近点角 270.483° 60.358°
近地点 464.382km 464.422km
远地点 466.702km 466.63km
周期 93.906分钟 93.906分钟
每日圈数 15.334454 15.33451
Detailed Information
固有亮度:
5
最大亮度:
2.5
卫星平台:
Starlink V1.0
覆盖范围:
全球
运营商:
太空探索技术公司
运营商所在国:
美国
制造商(研发单位):
太空探索技术公司
制造商所在国:
美国
使用方式:
暂无
Satellite Introduction
Starlink 计划是 SpaceX 推出的全球卫星互联网项目,通过发射低轨道卫星,为全球尤其是偏远地区提供高速、低延迟的互联网服务。自 2019 年起,Starlink 已部署数千颗卫星,旨在缩小全球数字鸿沟,推动互联网普及。该项目还为军事、航空等行业提供通信支持,带来广泛经济效益。
2D Orbit Map
3D Orbit Map
Orbit Altitude Analysis Chart
Orbit Inclination Analysis Chart
Orbit Comprehensive Analysis Chart
View Comprehensive Chart
Conjunction Data List
Event ID Objects TCA Miss Dist (km) Collision Risk Probability Collision Risk Index (CRI) Action
CDM_260905-225706-035206-861423
STRIX-4 (60352)
2026-09-05T
22:57:46+0000
1.667 km
极远距离
4.101275E-6 低风险 0.47
CDM_260913-054705-246106-861421
2026-09-13T
05:47:55+0000
2.517 km
极远距离
1.732174E-6 低风险 0.4
CDM_260913-185204-521206-861421
2026-09-13T
18:52:10+0000
2.544 km
极远距离
1.610005E-6 低风险 0.39
CDM_260913-200404-606106-861421
2026-09-13T
20:04:17+0000
2.830 km
极远距离
1.389352E-6 低风险 0.38
CDM_260914-085605-390006-861421
2026-09-14T
08:56:47+0000
2.725 km
极远距离
1.325574E-6 低风险 0.37
CDM_260913-233604-738606-861421
2026-09-13T
23:36:22+0000
2.999 km
极远距离
1.308444E-6 低风险 0.37
CDM_260912-180905-235306-861423
2026-09-12T
18:09:12+0000
2.401 km
极远距离
1.175254E-6 低风险 0.36
CDM_260912-201305-015906-861421
2026-09-12T
20:13:58+0000
2.527 km
极远距离
1.109278E-6 低风险 0.36
Miss Distance Evolution Trend with All Objects
Collision Probability Evolution Trend with All Objects